Location: Mittersill
(44.1801°N, 71.7142°W)
Time: 02:51:05
(UTC+00:00)

Iridium 4 Rocket - Pass Details

Date: 10 September 2024
Orbit: 580 x 894 km, 86.9° (Epoch: 04 October)

Event Time Altitude Azimuth Distance (km) Brightness Sun altitude
Rises 23:43:28 0° 2° (N) 2,854 6.6 -7.5°
Reaches altitude 10° 23:45:45 10° 8° (N) 1,926 5.7 -7.9°
Maximum altitude 23:49:49 50° 84° (E) 749 3.1 -8.6°
Drops below altitude 10° 23:53:50 10° 161° (SSE) 1,898 5.2 -9.3°
Sets 23:56:04 0° 166° (SSE) 2,808 6.1 -9.7°
